Time,TemperatureF,DewpointF,PressureIn,WindDirection,WindDirectionDegrees,WindSpeedMPH,WindSpeedGustMPH,Humidity,HourlyPrecipIn,Conditions,Clouds,dailyrainin,SoftwareType,DateUTC
2014-02-04 00:00:00,17.0,13.8,30.38,WSW,250,0.0,0.0,87,0.00,,OVC,0.00,VWS V14.01,2014-02-04 05:00:00,
2014-02-04 00:01:00,14.5,11.6,30.38,WSW,253,0.0,1.0,88,0.00,,CLR,0.00,VWS V14.01,2014-02-04 05:01:00,
2014-02-04 00:04:00,14.4,11.5,30.38,WSW,252,0.0,0.0,88,0.00,,CLR,0.00,VWS V14.01,2014-02-04 05:04:00,
2014-02-04 00:05:00,14.4,11.8,30.38,WSW,253,0.0,0.0,89,0.00,,CLR,0.00,VWS V14.01,2014-02-04 05:05:00,
2014-02-04 00:10:00,14.7,12.1,30.38,WSW,257,0.0,0.0,89,0.00,,CLR,0.00,VWS V14.01,2014-02-04 05:10:00,
2014-02-04 00:15:00,15.3,12.9,30.38,West,267,0.0,1.0,90,0.00,,CLR,0.00,VWS V14.01,2014-02-04 05:15:00,
2014-02-04 00:20:00,15.8,13.4,30.38,WSW,245,0.0,2.0,90,0.00,,CLR,0.00,VWS V14.01,2014-02-04 05:20:00,
2014-02-04 00:25:00,16.1,13.4,30.38,WSW,257,0.0,2.0,89,0.00,,CLR,0.00,VWS V14.01,2014-02-04 05:25:00,
2014-02-04 00:30:00,16.3,13.6,30.38,West,259,1.0,2.0,89,0.00,,CLR,0.00,VWS V14.01,2014-02-04 05:30:00,
2014-02-04 00:35:00,16.5,13.6,30.38,West,263,0.0,0.0,88,0.00,,CLR,0.00,VWS V14.01,2014-02-04 05:35:00,
2014-02-04 00:40:00,16.6,13.7,30.38,West,263,0.0,0.0,88,0.00,,CLR,0.00,VWS V14.01,2014-02-04 05:40:00,
2014-02-04 00:45:00,16.7,13.5,30.38,WSW,252,0.0,0.0,87,0.00,,BKN029,0.00,VWS V14.01,2014-02-04 05:45:00,
2014-02-04 00:51:00,16.8,13.6,30.38,WSW,255,0.0,0.0,87,0.00,,BKN029,0.00,VWS V14.01,2014-02-04 05:51:00,
2014-02-04 00:56:00,16.8,13.6,30.38,WSW,255,0.0,0.0,87,0.00,,BKN029,0.00,VWS V14.01,2014-02-04 05:56:00,
2014-02-04 01:00:00,16.3,13.1,30.37,WSW,256,0.0,0.0,87,0.00,,OVC,0.00,VWS V14.01,2014-02-04 06:00:00,
2014-02-04 01:01:00,17.0,13.8,30.38,WSW,255,0.0,0.0,87,0.00,,BKN029,0.00,VWS V14.01,2014-02-04 06:01:00,
2014-02-04 01:06:00,17.0,13.8,30.38,WSW,248,0.0,0.0,87,0.00,,BKN029,0.00,VWS V14.01,2014-02-04 06:06:00,
2014-02-04 01:11:00,17.0,13.8,30.38,WSW,242,0.0,0.0,87,0.00,,BKN029,0.00,VWS V14.01,2014-02-04 06:11:00,
2014-02-04 01:16:00,16.8,13.6,30.39,WSW,245,0.0,0.0,87,0.00,,BKN029,0.00,VWS V14.01,2014-02-04 06:16:00,
2014-02-04 01:21:00,16.8,13.6,30.39,WSW,253,0.0,0.0,87,0.00,,BKN029,0.00,VWS V14.01,2014-02-04 06:21:00,
2014-02-04 01:26:00,16.7,13.5,30.39,West,263,0.0,0.0,87,0.00,,BKN029,0.00,VWS V14.01,2014-02-04 06:26:00,
2014-02-04 01:30:00,16.5,13.3,30.40,West,264,0.0,1.0,87,0.00,,OVC,0.00,VWS V14.01,2014-02-04 06:30:00,
2014-02-04 01:31:00,16.8,13.6,30.38,West,261,0.0,0.0,87,0.00,,BKN029,0.00,VWS V14.01,2014-02-04 06:31:00,
2014-02-04 01:36:00,16.8,13.6,30.38,WSW,252,0.0,0.0,87,0.00,,BKN029,0.00,VWS V14.01,2014-02-04 06:36:00,
2014-02-04 01:42:00,16.7,13.5,30.38,WSW,255,0.0,0.0,87,0.00,,BKN029,0.00,VWS V14.01,2014-02-04 06:42:00,
2014-02-04 01:47:00,16.6,13.4,30.38,WSW,256,0.0,0.0,87,0.00,,OVC027,0.00,VWS V14.01,2014-02-04 06:47:00,
2014-02-04 01:52:00,16.6,13.4,30.38,WSW,256,0.0,0.0,87,0.00,,OVC027,0.00,VWS V14.01,2014-02-04 06:52:00,
2014-02-04 01:57:00,16.5,13.3,30.37,WSW,256,0.0,0.0,87,0.00,,OVC027,0.00,VWS V14.01,2014-02-04 06:57:00,
2014-02-04 02:00:00,16.9,13.4,30.41,West,263,1.0,2.0,86,0.00,,OVC,0.00,VWS V14.01,2014-02-04 07:00:00,
2014-02-04 02:02:00,16.4,13.2,30.37,WSW,256,0.0,0.0,87,0.00,,OVC027,0.00,VWS V14.01,2014-02-04 07:02:00,
2014-02-04 02:07:00,16.3,13.1,30.37,WSW,255,0.0,0.0,87,0.00,,OVC027,0.00,VWS V14.01,2014-02-04 07:07:00,
2014-02-04 02:12:00,16.3,13.1,30.38,WSW,256,0.0,0.0,87,0.00,,OVC027,0.00,VWS V14.01,2014-02-04 07:12:00,
2014-02-04 02:17:00,16.2,13.0,30.38,WSW,256,0.0,0.0,87,0.00,,OVC027,0.00,VWS V14.01,2014-02-04 07:17:00,
2014-02-04 02:22:00,16.2,13.0,30.39,West,260,0.0,0.0,87,0.00,,OVC027,0.00,VWS V14.01,2014-02-04 07:22:00,
2014-02-04 02:28:00,16.3,13.1,30.39,WSW,257,0.0,1.0,87,0.00,,OVC027,0.00,VWS V14.01,2014-02-04 07:28:00,
2014-02-04 02:30:00,17.0,13.8,30.41,WSW,257,0.0,2.0,87,0.00,,OVC,0.00,VWS V14.01,2014-02-04 07:30:00,
2014-02-04 02:33:00,16.5,13.3,30.40,West,269,1.0,1.0,87,0.00,,OVC027,0.00,VWS V14.01,2014-02-04 07:33:00,
2014-02-04 02:38:00,16.7,13.5,30.40,West,269,0.0,1.0,87,0.00,,OVC027,0.00,VWS V14.01,2014-02-04 07:38:00,
2014-02-04 02:43:00,16.9,13.7,30.40,WSW,252,1.0,2.0,87,0.00,,OVC027,0.00,VWS V14.01,2014-02-04 07:43:00,
2014-02-04 02:48:00,16.9,13.7,30.40,West,263,1.0,2.0,87,0.00,,OVC026,0.00,VWS V14.01,2014-02-04 07:48:00,
2014-02-04 02:53:00,16.8,13.4,30.40,WSW,253,0.0,2.0,86,0.00,,OVC026,0.00,VWS V14.01,2014-02-04 07:53:00,
2014-02-04 02:58:00,16.9,13.4,30.41,WSW,256,0.0,2.0,86,0.00,,OVC026,0.00,VWS V14.01,2014-02-04 07:58:00,
2014-02-04 03:00:00,16.7,13.5,30.40,West,262,0.0,0.0,87,0.00,,OVC,0.00,VWS V14.01,2014-02-04 08:00:00,
2014-02-04 03:03:00,16.9,13.4,30.41,West,264,1.0,1.0,86,0.00,,OVC026,0.00,VWS V14.01,2014-02-04 08:03:00,
2014-02-04 03:08:00,17.0,13.5,30.41,West,268,0.0,2.0,86,0.00,,OVC026,0.00,VWS V14.01,2014-02-04 08:08:00,
2014-02-04 03:13:00,17.0,13.8,30.41,West,276,0.0,2.0,87,0.00,,OVC026,0.00,VWS V14.01,2014-02-04 08:13:00,
2014-02-04 03:19:00,17.0,13.8,30.41,West,259,1.0,2.0,87,0.00,,OVC026,0.00,VWS V14.01,2014-02-04 08:19:00,
2014-02-04 03:24:00,17.0,13.5,30.41,WSW,253,0.0,2.0,86,0.00,,OVC026,0.00,VWS V14.01,2014-02-04 08:24:00,
2014-02-04 03:29:00,17.0,13.5,30.41,WSW,248,0.0,2.0,86,0.00,,OVC026,0.00,VWS V14.01,2014-02-04 08:29:00,
2014-02-04 03:30:00,16.1,12.7,30.41,WSW,258,0.0,0.0,86,0.00,,OVC,0.00,VWS V14.01,2014-02-04 08:30:00,
2014-02-04 03:34:00,16.9,13.7,30.41,WSW,258,0.0,0.0,87,0.00,,OVC026,0.00,VWS V14.01,2014-02-04 08:34:00,
2014-02-04 03:39:00,16.9,13.7,30.41,West,262,0.0,0.0,87,0.00,,OVC026,0.00,VWS V14.01,2014-02-04 08:39:00,
2014-02-04 03:44:00,16.8,13.6,30.41,West,261,0.0,0.0,87,0.00,,OVC026,0.00,VWS V14.01,2014-02-04 08:44:00,
2014-02-04 03:49:00,16.8,13.6,30.40,West,262,0.0,0.0,87,0.00,,OVC027,0.00,VWS V14.01,2014-02-04 08:49:00,
2014-02-04 03:54:00,16.8,13.6,30.40,WSW,257,0.0,0.0,87,0.00,,OVC027,0.00,VWS V14.01,2014-02-04 08:54:00,
2014-02-04 03:59:00,16.7,13.5,30.40,West,262,0.0,0.0,87,0.00,,OVC027,0.00,VWS V14.01,2014-02-04 08:59:00,
2014-02-04 04:00:00,15.1,11.9,30.41,West,266,0.0,0.0,87,0.00,,OVC,0.00,VWS V14.01,2014-02-04 09:00:00,
2014-02-04 04:05:00,16.7,13.5,30.40,West,262,0.0,0.0,87,0.00,,OVC027,0.00,VWS V14.01,2014-02-04 09:05:00,
2014-02-04 04:10:00,16.7,13.5,30.40,West,262,0.0,0.0,87,0.00,,OVC027,0.00,VWS V14.01,2014-02-04 09:10:00,
2014-02-04 04:15:00,16.6,13.4,30.40,West,266,0.0,0.0,87,0.00,,OVC027,0.00,VWS V14.01,2014-02-04 09:15:00,
2014-02-04 04:20:00,16.5,13.3,30.40,West,266,0.0,0.0,87,0.00,,OVC027,0.00,VWS V14.01,2014-02-04 09:20:00,
2014-02-04 04:25:00,16.4,13.2,30.40,West,260,0.0,0.0,87,0.00,,OVC027,0.00,VWS V14.01,2014-02-04 09:25:00,
2014-02-04 04:30:00,16.2,12.8,30.40,West,264,0.0,0.0,86,0.00,,OVC027,0.00,VWS V14.01,2014-02-04 09:30:00,
2014-02-04 04:35:00,16.0,12.6,30.40,West,269,0.0,0.0,86,0.00,,OVC027,0.00,VWS V14.01,2014-02-04 09:35:00,
2014-02-04 04:40:00,15.7,12.3,30.40,West,268,0.0,0.0,86,0.00,,OVC027,0.00,VWS V14.01,2014-02-04 09:40:00,
2014-02-04 04:45:00,15.6,12.4,30.40,West,268,0.0,0.0,87,0.00,,OVC027,0.00,VWS V14.01,2014-02-04 09:45:00,
2014-02-04 04:50:00,15.5,12.3,30.41,West,269,0.0,0.0,87,0.00,,OVC027,0.00,VWS V14.01,2014-02-04 09:50:00,
2014-02-04 04:56:00,15.4,12.2,30.41,WSW,256,0.0,0.0,87,0.00,,OVC027,0.00,VWS V14.01,2014-02-04 09:56:00,
2014-02-04 05:00:00,14.0,11.1,30.42,WSW,255,0.0,1.0,88,0.00,,OVC,0.00,VWS V14.01,2014-02-04 10:00:00,
2014-02-04 05:01:00,15.2,12.0,30.40,WSW,253,0.0,0.0,87,0.00,,OVC027,0.00,VWS V14.01,2014-02-04 10:01:00,
2014-02-04 05:06:00,15.0,11.8,30.41,West,260,0.0,0.0,87,0.00,,OVC027,0.00,VWS V14.01,2014-02-04 10:06:00,
2014-02-04 05:11:00,14.7,11.5,30.41,West,267,0.0,0.0,87,0.00,,OVC027,0.00,VWS V14.01,2014-02-04 10:11:00,
2014-02-04 05:16:00,14.7,11.5,30.42,West,267,0.0,0.0,87,0.00,,OVC027,0.00,VWS V14.01,2014-02-04 10:16:00,
2014-02-04 05:21:00,14.7,11.8,30.42,WSW,258,1.0,2.0,88,0.00,,OVC027,0.00,VWS V14.01,2014-02-04 10:21:00,
2014-02-04 05:26:00,14.6,11.7,30.41,West,259,0.0,2.0,88,0.00,,OVC027,0.00,VWS V14.01,2014-02-04 10:26:00,
2014-02-04 05:30:00,13.1,10.0,30.42,WSW,252,0.0,2.0,87,0.00,,OVC,0.00,VWS V14.01,2014-02-04 10:30:00,
2014-02-04 05:31:00,14.5,11.3,30.41,West,271,0.0,2.0,87,0.00,,OVC027,0.00,VWS V14.01,2014-02-04 10:31:00,
2014-02-04 05:36:00,14.4,11.2,30.42,West,264,1.0,1.0,87,0.00,,OVC027,0.00,VWS V14.01,2014-02-04 10:36:00,
2014-02-04 05:42:00,14.2,11.1,30.41,WSW,257,0.0,1.0,87,0.00,,OVC027,0.00,VWS V14.01,2014-02-04 10:42:00,
2014-02-04 05:47:00,14.1,11.2,30.41,West,267,0.0,1.0,88,0.00,,SCT025,0.00,VWS V14.01,2014-02-04 10:47:00,
2014-02-04 05:52:00,14.0,11.1,30.42,West,259,0.0,1.0,88,0.00,,SCT025,0.00,VWS V14.01,2014-02-04 10:52:00,
2014-02-04 05:57:00,14.0,11.1,30.42,WSW,257,0.0,1.0,88,0.00,,SCT025,0.00,VWS V14.01,2014-02-04 10:57:00,
2014-02-04 06:00:00,12.0,9.6,30.43,WSW,253,0.0,0.0,90,0.00,,OVC,0.00,VWS V14.01,2014-02-04 11:00:00,
2014-02-04 06:02:00,14.0,11.1,30.42,West,260,1.0,1.0,88,0.00,,SCT025,0.00,VWS V14.01,2014-02-04 11:02:00,
2014-02-04 06:07:00,13.9,11.0,30.43,West,270,1.0,2.0,88,0.00,,SCT025,0.00,VWS V14.01,2014-02-04 11:07:00,
2014-02-04 06:12:00,14.0,11.1,30.42,West,264,0.0,2.0,88,0.00,,SCT025,0.00,VWS V14.01,2014-02-04 11:12:00,
2014-02-04 06:17:00,14.1,11.2,30.42,WSW,252,0.0,2.0,88,0.00,,SCT025,0.00,VWS V14.01,2014-02-04 11:17:00,
2014-02-04 06:22:00,14.0,11.1,30.42,WSW,252,0.0,2.0,88,0.00,,SCT025,0.00,VWS V14.01,2014-02-04 11:22:00,
2014-02-04 06:27:00,13.6,10.5,30.42,WSW,252,0.0,2.0,87,0.00,,SCT025,0.00,VWS V14.01,2014-02-04 11:27:00,
2014-02-04 06:30:00,12.3,9.9,30.45,WSW,253,0.0,0.0,90,0.00,,OVC,0.00,VWS V14.01,2014-02-04 11:30:00,
2014-02-04 06:32:00,13.1,10.0,30.42,WSW,252,0.0,2.0,87,0.00,,SCT025,0.00,VWS V14.01,2014-02-04 11:32:00,
2014-02-04 06:38:00,12.8,9.7,30.43,WSW,252,0.0,0.0,87,0.00,,SCT025,0.00,VWS V14.01,2014-02-04 11:38:00,
2014-02-04 06:43:00,12.5,9.4,30.43,WSW,253,0.0,0.0,87,0.00,,SCT025,0.00,VWS V14.01,2014-02-04 11:43:00,
2014-02-04 06:48:00,12.1,9.2,30.43,WSW,253,0.0,0.0,88,0.00,,CLR,0.00,VWS V14.01,2014-02-04 11:48:00,
2014-02-04 06:53:00,11.8,8.9,30.43,WSW,253,0.0,0.0,88,0.00,,CLR,0.00,VWS V14.01,2014-02-04 11:53:00,
2014-02-04 06:58:00,11.7,8.8,30.43,WSW,252,0.0,0.0,88,0.00,,CLR,0.00,VWS V14.01,2014-02-04 11:58:00,
2014-02-04 07:00:00,13.2,10.8,30.46,West,267,1.0,1.0,90,0.00,,OVC,0.00,VWS V14.01,2014-02-04 12:00:00,
2014-02-04 07:03:00,12.0,9.6,30.43,WSW,253,0.0,0.0,90,0.00,,CLR,0.00,VWS V14.01,2014-02-04 12:03:00,
2014-02-04 07:08:00,12.2,9.8,30.44,WSW,252,0.0,0.0,90,0.00,,CLR,0.00,VWS V14.01,2014-02-04 12:08:00,
2014-02-04 07:13:00,12.1,9.7,30.44,WSW,253,0.0,0.0,90,0.00,,CLR,0.00,VWS V14.01,2014-02-04 12:13:00,
2014-02-04 07:18:00,12.1,9.7,30.44,WSW,253,0.0,0.0,90,0.00,,CLR,0.00,VWS V14.01,2014-02-04 12:18:00,
2014-02-04 07:24:00,12.0,9.6,30.44,WSW,252,0.0,0.0,90,0.00,,CLR,0.00,VWS V14.01,2014-02-04 12:24:00,
2014-02-04 07:29:00,12.1,9.7,30.44,WSW,253,0.0,0.0,90,0.00,,CLR,0.00,VWS V14.01,2014-02-04 12:29:00,
2014-02-04 07:30:00,13.9,11.3,30.48,WSW,252,1.0,3.0,89,0.00,,OVC,0.00,VWS V14.01,2014-02-04 12:30:00,
2014-02-04 07:34:00,12.3,9.9,30.44,WSW,252,0.0,0.0,90,0.00,,CLR,0.00,VWS V14.01,2014-02-04 12:34:00,
2014-02-04 07:39:00,12.5,10.4,30.45,WSW,253,0.0,0.0,91,0.00,,CLR,0.00,VWS V14.01,2014-02-04 12:39:00,
2014-02-04 07:44:00,12.6,10.2,30.45,WSW,252,0.0,0.0,90,0.00,,CLR,0.00,VWS V14.01,2014-02-04 12:44:00,
2014-02-04 07:49:00,12.8,10.7,30.45,WSW,256,0.0,0.0,91,0.00,,CLR,0.00,VWS V14.01,2014-02-04 12:49:00,
2014-02-04 07:54:00,13.0,10.6,30.46,WSW,256,0.0,0.0,90,0.00,,CLR,0.00,VWS V14.01,2014-02-04 12:54:00,
2014-02-04 07:59:00,13.2,10.8,30.46,West,259,0.0,0.0,90,0.00,,CLR,0.00,VWS V14.01,2014-02-04 12:59:00,
2014-02-04 08:00:00,15.6,12.4,30.47,West,262,0.0,3.0,87,0.00,,OVC,0.00,VWS V14.01,2014-02-04 13:00:00,
2014-02-04 08:04:00,13.3,10.9,30.46,West,259,1.0,1.0,90,0.00,,CLR,0.00,VWS V14.01,2014-02-04 13:04:00,
2014-02-04 08:10:00,13.3,10.7,30.46,West,267,0.0,1.0,89,0.00,,CLR,0.00,VWS V14.01,2014-02-04 13:10:00,
2014-02-04 08:16:00,13.4,10.8,30.47,West,263,1.0,2.0,89,0.00,,CLR,0.00,VWS V14.01,2014-02-04 13:16:00,
2014-02-04 08:21:00,13.6,11.0,30.47,West,267,1.0,2.0,89,0.00,,CLR,0.00,VWS V14.01,2014-02-04 13:21:00,
2014-02-04 08:26:00,13.7,11.1,30.47,West,259,1.0,3.0,89,0.00,,CLR,0.00,VWS V14.01,2014-02-04 13:26:00,
2014-02-04 08:30:00,17.9,14.2,30.46,SW,231,0.0,1.0,85,0.00,,OVC,0.00,VWS V14.01,2014-02-04 13:30:00,
2014-02-04 08:31:00,13.8,11.2,30.48,West,262,2.0,3.0,89,0.00,,CLR,0.00,VWS V14.01,2014-02-04 13:31:00,
2014-02-04 08:36:00,14.0,11.4,30.48,West,267,1.0,2.0,89,0.00,,CLR,0.00,VWS V14.01,2014-02-04 13:36:00,
2014-02-04 08:41:00,14.2,11.3,30.47,West,259,1.0,3.0,88,0.00,,CLR,0.00,VWS V14.01,2014-02-04 13:41:00,
2014-02-04 08:46:00,14.5,11.6,30.48,WSW,250,1.0,3.0,88,0.00,,CLR,0.00,VWS V14.01,2014-02-04 13:46:00,
2014-02-04 08:51:00,14.9,12.0,30.47,WSW,257,0.0,3.0,88,0.00,,CLR,0.00,VWS V14.01,2014-02-04 13:51:00,
2014-02-04 08:57:00,15.2,12.3,30.47,WSW,242,1.0,3.0,88,0.00,,CLR,0.00,VWS V14.01,2014-02-04 13:57:00,
2014-02-04 09:00:00,21.0,16.4,30.46,SW,228,1.0,3.0,82,0.00,,OVC,0.00,VWS V14.01,2014-02-04 14:00:00,
2014-02-04 09:02:00,15.6,12.7,30.47,West,267,1.0,3.0,88,0.00,,CLR,0.00,VWS V14.01,2014-02-04 14:02:00,
2014-02-04 09:07:00,15.9,12.7,30.47,WSW,247,0.0,1.0,87,0.00,,CLR,0.00,VWS V14.01,2014-02-04 14:07:00,
2014-02-04 09:12:00,16.2,13.0,30.47,West,271,1.0,1.0,87,0.00,,CLR,0.00,VWS V14.01,2014-02-04 14:12:00,
2014-02-04 09:17:00,16.4,12.9,30.47,WSW,252,0.0,1.0,86,0.00,,CLR,0.00,VWS V14.01,2014-02-04 14:17:00,
2014-02-04 09:22:00,16.8,13.4,30.46,SW,235,0.0,1.0,86,0.00,,CLR,0.00,VWS V14.01,2014-02-04 14:22:00,
2014-02-04 09:27:00,17.3,13.8,30.46,WSW,239,0.0,1.0,86,0.00,,CLR,0.00,VWS V14.01,2014-02-04 14:27:00,
2014-02-04 09:30:00,23.2,15.2,30.46,WSW,253,0.0,3.0,71,0.00,,OVC,0.00,VWS V14.01,2014-02-04 14:30:00,
2014-02-04 09:32:00,17.8,14.1,30.46,SW,231,0.0,1.0,85,0.00,,CLR,0.00,VWS V14.01,2014-02-04 14:32:00,
2014-02-04 09:37:00,18.3,14.6,30.47,West,273,0.0,0.0,85,0.00,,CLR,0.00,VWS V14.01,2014-02-04 14:37:00,
2014-02-04 09:43:00,18.9,14.9,30.47,West,269,0.0,0.0,84,0.00,,CLR,0.00,VWS V14.01,2014-02-04 14:43:00,
2014-02-04 09:45:00,19.0,14.7,30.47,West,269,0.0,0.0,83,0.00,,CLR,0.00,VWS V14.01,2014-02-04 14:45:00,
2014-02-04 09:50:00,19.6,15.3,30.46,WSW,245,0.0,0.0,83,0.00,,CLR,0.00,VWS V14.01,2014-02-04 14:50:00,
2014-02-04 09:55:00,20.1,15.5,30.46,West,267,1.0,2.0,82,0.00,,CLR,0.00,VWS V14.01,2014-02-04 14:55:00,
2014-02-04 10:00:00,24.0,15.0,30.46,NE,53,0.0,3.0,68,0.00,,OVC,0.00,VWS V14.01,2014-02-04 15:00:00,
2014-02-04 10:01:00,20.7,16.1,30.47,WSW,253,0.0,3.0,82,0.00,,CLR,0.00,VWS V14.01,2014-02-04 15:01:00,
2014-02-04 10:06:00,21.1,15.9,30.46,SW,223,0.0,1.0,80,0.00,,CLR,0.00,VWS V14.01,2014-02-04 15:06:00,
2014-02-04 10:11:00,21.5,16.3,30.46,SW,231,2.0,3.0,80,0.00,,CLR,0.00,VWS V14.01,2014-02-04 15:11:00,
2014-02-04 10:16:00,21.9,16.4,30.46,West,272,1.0,3.0,79,0.00,,CLR,0.00,VWS V14.01,2014-02-04 15:16:00,
2014-02-04 10:21:00,22.5,16.7,30.46,WSW,257,1.0,3.0,78,0.00,,CLR,0.00,VWS V14.01,2014-02-04 15:21:00,
2014-02-04 10:26:00,22.8,16.4,30.46,WSW,254,0.0,3.0,76,0.00,,CLR,0.00,VWS V14.01,2014-02-04 15:26:00,
2014-02-04 10:30:00,24.0,14.3,30.45,NW,309,1.0,4.0,66,0.00,,OVC,0.00,VWS V14.01,2014-02-04 15:30:00,
2014-02-04 10:31:00,23.1,15.4,30.46,WSW,238,1.0,3.0,72,0.00,,CLR,0.00,VWS V14.01,2014-02-04 15:31:00,
2014-02-04 10:36:00,23.5,15.2,30.46,WNW,290,0.0,2.0,70,0.00,,CLR,0.00,VWS V14.01,2014-02-04 15:36:00,
2014-02-04 10:41:00,23.5,13.8,30.46,SW,227,0.0,3.0,66,0.00,,CLR,0.00,VWS V14.01,2014-02-04 15:41:00,
2014-02-04 10:46:00,23.9,14.2,30.46,West,263,2.0,3.0,66,0.00,,CLR,0.00,VWS V14.01,2014-02-04 15:46:00,
2014-02-04 10:52:00,23.9,14.6,30.46,West,264,0.0,3.0,67,0.00,,CLR,0.00,VWS V14.01,2014-02-04 15:52:00,
2014-02-04 10:57:00,24.1,14.7,30.46,NNE,20,1.0,3.0,67,0.00,,CLR,0.00,VWS V14.01,2014-02-04 15:57:00,
2014-02-04 11:00:00,24.0,14.0,30.44,ESE,113,1.0,5.0,65,0.00,,OVC,0.00,VWS V14.01,2014-02-04 16:00:00,
2014-02-04 11:02:00,24.0,15.0,30.46,NE,53,1.0,3.0,68,0.00,,CLR,0.00,VWS V14.01,2014-02-04 16:02:00,
2014-02-04 11:07:00,24.2,15.2,30.46,NNE,19,0.0,3.0,68,0.00,,CLR,0.00,VWS V14.01,2014-02-04 16:07:00,
2014-02-04 11:12:00,24.4,15.4,30.46,NNE,15,1.0,3.0,68,0.00,,CLR,0.00,VWS V14.01,2014-02-04 16:12:00,
2014-02-04 11:17:00,24.4,15.0,30.46,NNE,23,0.0,3.0,67,0.00,,CLR,0.00,VWS V14.01,2014-02-04 16:17:00,
2014-02-04 11:22:00,24.4,14.7,30.46,NE,36,0.0,3.0,66,0.00,,CLR,0.00,VWS V14.01,2014-02-04 16:22:00,
2014-02-04 11:27:00,24.4,14.7,30.45,North,358,2.0,3.0,66,0.00,,CLR,0.00,VWS V14.01,2014-02-04 16:27:00,
2014-02-04 11:30:00,24.7,14.3,30.43,East,89,1.0,4.0,64,0.00,,OVC,0.00,VWS V14.01,2014-02-04 16:30:00,
2014-02-04 11:32:00,24.1,14.4,30.45,NW,321,2.0,4.0,66,0.00,,CLR,0.00,VWS V14.01,2014-02-04 16:32:00,
2014-02-04 11:38:00,23.9,14.6,30.45,North,357,1.0,3.0,67,0.00,,CLR,0.00,VWS V14.01,2014-02-04 16:38:00,
2014-02-04 11:43:00,23.9,14.6,30.45,NNW,331,5.0,5.0,67,0.00,,CLR,0.00,VWS V14.01,2014-02-04 16:43:00,
2014-02-04 11:48:00,23.7,14.0,30.45,NNE,17,0.0,5.0,66,0.00,,CLR,0.00,VWS V14.01,2014-02-04 16:48:00,
2014-02-04 11:53:00,23.8,14.5,30.44,NNE,25,2.0,5.0,67,0.00,,CLR,0.00,VWS V14.01,2014-02-04 16:53:00,
2014-02-04 11:58:00,23.9,13.9,30.44,NNE,32,3.0,5.0,65,0.00,,CLR,0.00,VWS V14.01,2014-02-04 16:58:00,
2014-02-04 12:00:00,25.9,15.1,30.41,ENE,63,0.0,3.0,63,0.00,,OVC,0.00,VWS V14.01,2014-02-04 17:00:00,
2014-02-04 12:03:00,24.0,14.0,30.44,SE,129,0.0,5.0,65,0.00,,CLR,0.00,VWS V14.01,2014-02-04 17:03:00,
2014-02-04 12:08:00,24.2,13.8,30.44,North,4,1.0,4.0,64,0.00,,CLR,0.00,VWS V14.01,2014-02-04 17:08:00,
2014-02-04 12:13:00,24.4,14.0,30.44,North,6,0.0,4.0,64,0.00,,CLR,0.00,VWS V14.01,2014-02-04 17:13:00,
2014-02-04 12:18:00,24.7,14.6,30.44,ESE,105,0.0,4.0,65,0.00,,CLR,0.00,VWS V14.01,2014-02-04 17:18:00,
2014-02-04 12:23:00,24.9,14.5,30.43,ESE,115,2.0,4.0,64,0.00,,CLR,0.00,VWS V14.01,2014-02-04 17:23:00,
2014-02-04 12:28:00,24.8,14.0,30.43,East,83,1.0,4.0,63,0.00,,CLR,0.00,VWS V14.01,2014-02-04 17:28:00,
2014-02-04 12:30:00,26.1,15.6,30.39,NNE,15,1.0,3.0,64,0.00,,OVC,0.00,VWS V14.01,2014-02-04 17:30:00,
2014-02-04 12:34:00,24.8,14.4,30.43,ESE,114,2.0,2.0,64,0.00,,CLR,0.00,VWS V14.01,2014-02-04 17:34:00,
2014-02-04 12:39:00,25.3,15.2,30.43,North,1,1.0,3.0,65,0.00,,CLR,0.00,VWS V14.01,2014-02-04 17:39:00,
2014-02-04 12:44:00,25.4,14.6,30.42,ENE,70,1.0,3.0,63,0.00,,CLR,0.00,VWS V14.01,2014-02-04 17:44:00,
2014-02-04 12:49:00,25.3,14.5,30.42,East,82,1.0,3.0,63,0.00,,CLR,0.00,VWS V14.01,2014-02-04 17:49:00,
2014-02-04 12:54:00,25.4,14.6,30.41,SSW,211,0.0,3.0,63,0.00,,CLR,0.00,VWS V14.01,2014-02-04 17:54:00,
2014-02-04 12:59:00,25.7,15.2,30.42,SSW,208,0.0,3.0,64,0.00,,CLR,0.00,VWS V14.01,2014-02-04 17:59:00,
2014-02-04 13:00:00,26.5,15.3,30.35,SSE,149,0.0,5.0,62,0.00,,OVC,0.00,VWS V14.01,2014-02-04 18:00:00,
2014-02-04 13:04:00,26.0,15.5,30.41,ENE,70,1.0,2.0,64,0.00,,CLR,0.00,VWS V14.01,2014-02-04 18:04:00,
2014-02-04 13:09:00,26.1,15.6,30.40,ENE,68,1.0,3.0,64,0.00,,CLR,0.00,VWS V14.01,2014-02-04 18:09:00,
2014-02-04 13:14:00,26.0,15.9,30.40,East,82,0.0,3.0,65,0.00,,CLR,0.00,VWS V14.01,2014-02-04 18:14:00,
2014-02-04 13:20:00,25.9,15.4,30.39,East,94,1.0,3.0,64,0.00,,CLR,0.00,VWS V14.01,2014-02-04 18:20:00,
2014-02-04 13:25:00,25.8,15.0,30.39,East,81,1.0,3.0,63,0.00,,CLR,0.00,VWS V14.01,2014-02-04 18:25:00,
2014-02-04 13:30:00,25.9,15.4,30.39,SSE,148,0.0,3.0,64,0.00,,CLR,0.00,VWS V14.01,2014-02-04 18:30:00,
2014-02-04 13:35:00,26.1,15.2,30.39,ESE,113,0.0,2.0,63,0.00,,CLR,0.00,VWS V14.01,2014-02-04 18:35:00,
2014-02-04 13:40:00,26.3,15.4,30.38,ESE,113,3.0,5.0,63,0.00,,CLR,0.00,VWS V14.01,2014-02-04 18:40:00,
2014-02-04 13:45:00,26.2,15.3,30.38,SW,233,1.0,5.0,63,0.00,,CLR,0.00,VWS V14.01,2014-02-04 18:45:00,
2014-02-04 13:46:00,26.2,15.0,30.38,SE,134,1.0,5.0,62,0.00,,CLR,0.00,VWS V14.01,2014-02-04 18:46:00,
2014-02-04 13:51:00,26.5,15.3,30.38,East,97,1.0,5.0,62,0.00,,CLR,0.00,VWS V14.01,2014-02-04 18:51:00,
2014-02-04 13:56:00,26.7,15.4,30.37,SE,141,0.0,5.0,62,0.00,,CLR,0.00,VWS V14.01,2014-02-04 18:56:00,
2014-02-04 14:00:00,26.5,14.5,30.35,East,86,1.0,3.0,60,0.00,,OVC,0.00,VWS V14.01,2014-02-04 19:00:00,
2014-02-04 14:01:00,26.5,14.5,30.36,ESE,113,0.0,5.0,60,0.00,,CLR,0.00,VWS V14.01,2014-02-04 19:01:00,
2014-02-04 14:06:00,26.5,15.3,30.36,SE,142,1.0,2.0,62,0.00,,CLR,0.00,VWS V14.01,2014-02-04 19:06:00,
2014-02-04 14:11:00,26.5,15.6,30.35,ESE,108,1.0,3.0,63,0.00,,CLR,0.00,VWS V14.01,2014-02-04 19:11:00,
2014-02-04 14:16:00,26.6,15.4,30.35,SSE,150,0.0,3.0,62,0.00,,CLR,0.00,VWS V14.01,2014-02-04 19:16:00,
2014-02-04 14:22:00,26.5,15.3,30.35,ESE,116,1.0,3.0,62,0.00,,CLR,0.00,VWS V14.01,2014-02-04 19:22:00,
2014-02-04 14:27:00,26.2,14.2,30.35,SSE,153,0.0,3.0,60,0.00,,CLR,0.00,VWS V14.01,2014-02-04 19:27:00,
2014-02-04 14:30:00,26.0,14.0,30.36,East,101,2.0,2.0,60,0.00,,OVC,0.00,VWS V14.01,2014-02-04 19:30:00,
2014-02-04 14:32:00,26.3,14.7,30.35,East,84,0.0,3.0,61,0.00,,CLR,0.00,VWS V14.01,2014-02-04 19:32:00,
2014-02-04 14:37:00,26.3,15.4,30.35,SE,142,2.0,3.0,63,0.00,,CLR,0.00,VWS V14.01,2014-02-04 19:37:00,
2014-02-04 14:42:00,26.2,15.0,30.35,East,79,0.0,3.0,62,0.00,,CLR,0.00,VWS V14.01,2014-02-04 19:42:00,
2014-02-04 14:47:00,26.1,14.5,30.35,East,81,0.0,3.0,61,0.00,,CLR,0.00,VWS V14.01,2014-02-04 19:47:00,
2014-02-04 14:52:00,26.4,14.8,30.35,East,89,0.0,3.0,61,0.00,,CLR,0.00,VWS V14.01,2014-02-04 19:52:00,
2014-02-04 14:57:00,26.4,14.4,30.36,ESE,116,1.0,3.0,60,0.00,,CLR,0.00,VWS V14.01,2014-02-04 19:57:00,
2014-02-04 15:00:00,25.9,13.9,30.36,ESE,115,0.0,3.0,60,0.00,,OVC,0.00,VWS V14.01,2014-02-04 20:00:00,
2014-02-04 15:02:00,26.5,14.5,30.36,ESE,113,0.0,3.0,60,0.00,,CLR,0.00,VWS V14.01,2014-02-04 20:02:00,
2014-02-04 15:08:00,26.3,14.3,30.36,East,88,1.0,2.0,60,0.00,,CLR,0.00,VWS V14.01,2014-02-04 20:08:00,
2014-02-04 15:13:00,26.2,14.6,30.36,SE,124,0.0,2.0,61,0.00,,CLR,0.00,VWS V14.01,2014-02-04 20:13:00,
2014-02-04 15:18:00,26.1,14.1,30.36,ESE,115,0.0,2.0,60,0.00,,CLR,0.00,VWS V14.01,2014-02-04 20:18:00,
2014-02-04 15:23:00,26.2,14.2,30.36,East,89,0.0,2.0,60,0.00,,CLR,0.00,VWS V14.01,2014-02-04 20:23:00,
2014-02-04 15:28:00,26.1,14.1,30.36,East,80,1.0,2.0,60,0.00,,CLR,0.00,VWS V14.01,2014-02-04 20:28:00,
2014-02-04 15:30:00,25.7,15.6,30.37,East,83,0.0,3.0,65,0.00,,OVC,0.00,VWS V14.01,2014-02-04 20:30:00,
2014-02-04 15:33:00,26.0,14.0,30.36,East,101,2.0,2.0,60,0.00,,CLR,0.00,VWS V14.01,2014-02-04 20:33:00,
2014-02-04 15:38:00,26.1,14.5,30.36,SE,139,0.0,3.0,61,0.00,,CLR,0.00,VWS V14.01,2014-02-04 20:38:00,
2014-02-04 15:43:00,26.1,14.9,30.36,ESE,116,1.0,3.0,62,0.00,,CLR,0.00,VWS V14.01,2014-02-04 20:43:00,
2014-02-04 15:49:00,26.3,14.3,30.36,ENE,75,2.0,3.0,60,0.00,,CLR,0.00,VWS V14.01,2014-02-04 20:49:00,
2014-02-04 15:54:00,26.1,14.1,30.35,SE,134,2.0,3.0,60,0.00,,CLR,0.00,VWS V14.01,2014-02-04 20:54:00,
2014-02-04 15:59:00,26.0,14.0,30.36,ESE,105,1.0,3.0,60,0.00,,CLR,0.00,VWS V14.01,2014-02-04 20:59:00,
2014-02-04 16:00:00,24.9,15.5,30.36,ESE,116,1.0,3.0,67,0.00,,OVC,0.00,VWS V14.01,2014-02-04 21:00:00,
2014-02-04 16:04:00,25.9,13.9,30.36,SE,124,2.0,2.0,60,0.00,,CLR,0.00,VWS V14.01,2014-02-04 21:04:00,
2014-02-04 16:09:00,25.9,14.3,30.36,ESE,113,0.0,3.0,61,0.00,,CLR,0.00,VWS V14.01,2014-02-04 21:09:00,
2014-02-04 16:14:00,25.7,14.1,30.36,East,90,0.0,3.0,61,0.00,,CLR,0.00,VWS V14.01,2014-02-04 21:14:00,
2014-02-04 16:19:00,25.7,14.5,30.36,East,95,1.0,3.0,62,0.00,,CLR,0.00,VWS V14.01,2014-02-04 21:19:00,
2014-02-04 16:24:00,25.8,15.0,30.36,SSE,149,0.0,3.0,63,0.00,,CLR,0.00,VWS V14.01,2014-02-04 21:24:00,
2014-02-04 16:29:00,25.8,15.3,30.37,ESE,121,1.0,3.0,64,0.00,,CLR,0.00,VWS V14.01,2014-02-04 21:29:00,
2014-02-04 16:30:00,24.4,15.4,30.37,ESE,118,0.0,4.0,68,0.00,,OVC,0.00,VWS V14.01,2014-02-04 21:30:00,
2014-02-04 16:34:00,25.7,15.6,30.37,East,85,0.0,1.0,65,0.00,,CLR,0.00,VWS V14.01,2014-02-04 21:34:00,
2014-02-04 16:40:00,25.5,15.4,30.37,SE,134,0.0,1.0,65,0.00,,CLR,0.00,VWS V14.01,2014-02-04 21:40:00,
2014-02-04 16:45:00,25.3,15.6,30.37,ESE,110,1.0,3.0,66,0.00,,CLR,0.00,VWS V14.01,2014-02-04 21:45:00,
2014-02-04 16:50:00,25.2,15.8,30.37,ENE,77,1.0,3.0,67,0.00,,CLR,0.00,VWS V14.01,2014-02-04 21:50:00,
2014-02-04 16:55:00,25.0,15.6,30.36,East,81,0.0,3.0,67,0.00,,CLR,0.00,VWS V14.01,2014-02-04 21:55:00,
2014-02-04 17:00:00,24.2,14.8,30.36,SE,127,1.0,3.0,67,0.00,,OVC,0.00,VWS V14.01,2014-02-04 22:00:00,
2014-02-04 17:01:00,24.9,15.5,30.36,ESE,106,1.0,3.0,67,0.00,,CLR,0.00,VWS V14.01,2014-02-04 22:01:00,
2014-02-04 17:06:00,24.8,15.8,30.36,ESE,118,1.0,3.0,68,0.00,,CLR,0.00,VWS V14.01,2014-02-04 22:06:00,
2014-02-04 17:11:00,24.7,16.0,30.36,SE,124,2.0,4.0,69,0.00,,CLR,0.00,VWS V14.01,2014-02-04 22:11:00,
2014-02-04 17:16:00,24.6,15.9,30.36,SSE,160,0.0,4.0,69,0.00,,CLR,0.00,VWS V14.01,2014-02-04 22:16:00,
2014-02-04 17:21:00,24.6,15.9,30.37,SSE,163,0.0,4.0,69,0.00,,CLR,0.00,VWS V14.01,2014-02-04 22:21:00,
2014-02-04 17:26:00,24.5,15.8,30.37,ESE,118,0.0,4.0,69,0.00,,CLR,0.00,VWS V14.01,2014-02-04 22:26:00,
2014-02-04 17:30:00,24.3,15.3,30.36,SE,135,1.0,4.0,68,0.00,,OVC,0.00,VWS V14.01,2014-02-04 22:30:00,
2014-02-04 17:31:00,24.4,15.4,30.37,SSE,148,0.0,4.0,68,0.00,,CLR,0.00,VWS V14.01,2014-02-04 22:31:00,
2014-02-04 17:36:00,24.4,15.7,30.37,SE,136,1.0,1.0,69,0.00,,CLR,0.00,VWS V14.01,2014-02-04 22:36:00,
2014-02-04 17:42:00,24.3,15.6,30.37,SSE,162,0.0,2.0,69,0.00,,CLR,0.00,VWS V14.01,2014-02-04 22:42:00,
2014-02-04 17:47:00,24.3,15.3,30.37,SE,142,1.0,2.0,68,0.00,,CLR,0.00,VWS V14.01,2014-02-04 22:47:00,
2014-02-04 17:52:00,24.3,15.6,30.37,SE,128,0.0,2.0,69,0.00,,CLR,0.00,VWS V14.01,2014-02-04 22:52:00,
2014-02-04 17:57:00,24.2,15.5,30.36,ESE,120,2.0,3.0,69,0.00,,CLR,0.00,VWS V14.01,2014-02-04 22:57:00,
2014-02-04 18:00:00,24.2,15.5,30.35,SE,139,0.0,3.0,69,0.00,,OVC,0.00,VWS V14.01,2014-02-04 23:00:00,
2014-02-04 18:02:00,24.2,15.2,30.36,SSE,148,2.0,3.0,68,0.00,,CLR,0.00,VWS V14.01,2014-02-04 23:02:00,
2014-02-04 18:07:00,24.2,14.8,30.36,SE,138,1.0,3.0,67,0.00,,CLR,0.00,VWS V14.01,2014-02-04 23:07:00,
2014-02-04 18:12:00,24.2,14.8,30.36,SE,130,1.0,4.0,67,0.00,,CLR,0.00,VWS V14.01,2014-02-04 23:12:00,
2014-02-04 18:17:00,24.3,15.6,30.36,SE,124,1.0,4.0,69,0.00,,CLR,0.00,VWS V14.01,2014-02-04 23:17:00,
2014-02-04 18:22:00,24.3,15.3,30.36,SE,135,1.0,4.0,68,0.00,,CLR,0.00,VWS V14.01,2014-02-04 23:22:00,
2014-02-04 18:28:00,24.3,15.3,30.36,SE,132,0.0,4.0,68,0.00,,CLR,0.00,VWS V14.01,2014-02-04 23:28:00,
2014-02-04 18:30:00,24.2,15.8,30.36,East,98,1.0,2.0,70,0.00,,OVC,0.00,VWS V14.01,2014-02-04 23:30:00,
2014-02-04 18:33:00,24.3,15.6,30.36,SE,133,1.0,4.0,69,0.00,,CLR,0.00,VWS V14.01,2014-02-04 23:33:00,
2014-02-04 18:38:00,24.3,15.6,30.36,East,95,0.0,2.0,69,0.00,,CLR,0.00,VWS V14.01,2014-02-04 23:38:00,
2014-02-04 18:43:00,24.3,15.3,30.36,SE,134,0.0,2.0,68,0.00,,CLR,0.00,VWS V14.01,2014-02-04 23:43:00,
2014-02-04 18:48:00,24.3,15.6,30.36,SE,126,3.0,3.0,69,0.00,,FEW120,0.00,VWS V14.01,2014-02-04 23:48:00,
2014-02-04 18:53:00,24.3,15.6,30.36,SE,132,1.0,3.0,69,0.00,,FEW120,0.00,VWS V14.01,2014-02-04 23:53:00,
2014-02-04 18:58:00,24.2,15.2,30.36,SE,125,0.0,3.0,68,0.00,,FEW120,0.00,VWS V14.01,2014-02-04 23:58:00,
2014-02-04 19:00:00,24.3,16.3,30.36,South,190,1.0,1.0,71,0.00,,OVC,0.00,VWS V14.01,2014-02-05 00:00:00,
2014-02-04 19:04:00,24.2,15.5,30.35,SE,139,0.0,0.0,69,0.00,,FEW120,0.00,VWS V14.01,2014-02-05 00:04:00,
2014-02-04 19:09:00,24.2,15.5,30.36,ESE,110,0.0,2.0,69,0.00,,FEW120,0.00,VWS V14.01,2014-02-05 00:09:00,
2014-02-04 19:14:00,24.2,15.5,30.36,SE,127,1.0,2.0,69,0.00,,FEW120,0.00,VWS V14.01,2014-02-05 00:14:00,
2014-02-04 19:19:00,24.2,15.5,30.35,SE,128,0.0,2.0,69,0.00,,BKN110,0.00,VWS V14.01,2014-02-05 00:19:00,
2014-02-04 19:24:00,24.2,15.8,30.35,East,84,0.0,2.0,70,0.00,,BKN110,0.00,VWS V14.01,2014-02-05 00:24:00,
2014-02-04 19:29:00,24.2,15.8,30.36,East,96,0.0,2.0,70,0.00,,BKN110,0.00,VWS V14.01,2014-02-05 00:29:00,
2014-02-04 19:30:00,24.4,16.4,30.36,South,191,0.0,2.0,71,0.00,,OVC,0.00,VWS V14.01,2014-02-05 00:30:00,
2014-02-04 19:35:00,24.2,16.2,30.36,East,101,0.0,1.0,71,0.00,,BKN110,0.00,VWS V14.01,2014-02-05 00:35:00,
2014-02-04 19:40:00,24.2,15.8,30.36,East,101,0.0,1.0,70,0.00,,BKN110,0.00,VWS V14.01,2014-02-05 00:40:00,
2014-02-04 19:45:00,24.2,15.8,30.36,SE,137,0.0,1.0,70,0.00,,BKN110,0.00,VWS V14.01,2014-02-05 00:45:00,
2014-02-04 19:50:00,24.3,15.9,30.36,ESE,120,1.0,1.0,70,0.00,,BKN110,0.00,VWS V14.01,2014-02-05 00:50:00,
2014-02-04 19:55:00,24.3,16.3,30.36,ESE,107,0.0,1.0,71,0.00,,BKN110,0.00,VWS V14.01,2014-02-05 00:55:00,
2014-02-04 20:00:00,24.3,16.3,30.36,ESE,108,0.0,1.0,71,0.00,,BKN110,0.00,VWS V14.01,2014-02-05 01:00:00,
2014-02-04 20:05:00,24.3,15.9,30.36,SSE,154,1.0,1.0,70,0.00,,BKN110,0.00,VWS V14.01,2014-02-05 01:05:00,
2014-02-04 20:10:00,24.3,16.3,30.36,SSW,197,0.0,1.0,71,0.00,,BKN110,0.00,VWS V14.01,2014-02-05 01:10:00,
2014-02-04 20:16:00,24.3,16.3,30.36,SSE,165,0.0,1.0,71,0.00,,BKN110,0.00,VWS V14.01,2014-02-05 01:16:00,
2014-02-04 20:21:00,24.3,16.3,30.36,ESE,109,0.0,1.0,71,0.00,,BKN110,0.00,VWS V14.01,2014-02-05 01:21:00,
2014-02-04 20:26:00,24.3,15.9,30.36,SSE,162,0.0,2.0,70,0.00,,BKN110,0.00,VWS V14.01,2014-02-05 01:26:00,
2014-02-04 20:30:00,24.4,16.4,30.34,SE,136,1.0,3.0,71,0.00,,OVC,0.00,VWS V14.01,2014-02-05 01:30:00,
2014-02-04 20:31:00,24.4,16.4,30.36,SSE,163,0.0,2.0,71,0.00,,BKN110,0.00,VWS V14.01,2014-02-05 01:31:00,
2014-02-04 20:36:00,24.4,16.4,30.35,SE,131,0.0,0.0,71,0.00,,BKN110,0.00,VWS V14.01,2014-02-05 01:36:00,
2014-02-04 20:41:00,24.3,16.6,30.35,SSW,211,0.0,3.0,72,0.00,,BKN110,0.00,VWS V14.01,2014-02-05 01:41:00,
2014-02-04 20:46:00,24.4,16.7,30.34,SSW,208,0.0,3.0,72,0.00,,OVC110,0.00,VWS V14.01,2014-02-05 01:46:00,
2014-02-04 20:51:00,24.3,16.6,30.34,SSW,205,1.0,3.0,72,0.00,,OVC110,0.00,VWS V14.01,2014-02-05 01:51:00,
2014-02-04 20:57:00,24.3,16.3,30.34,SSE,149,0.0,3.0,71,0.00,,OVC110,0.00,VWS V14.01,2014-02-05 01:57:00,
2014-02-04 21:00:00,24.4,15.7,30.29,SSW,195,0.0,4.0,69,0.00,,OVC,0.00,VWS V14.01,2014-02-05 02:00:00,
2014-02-04 21:02:00,24.4,16.4,30.35,SW,228,1.0,3.0,71,0.00,,OVC110,0.00,VWS V14.01,2014-02-05 02:02:00,
2014-02-04 21:07:00,24.4,16.7,30.34,East,97,0.0,3.0,72,0.00,,OVC110,0.00,VWS V14.01,2014-02-05 02:07:00,
2014-02-04 21:12:00,24.3,16.6,30.33,East,90,0.0,3.0,72,0.00,,OVC110,0.00,VWS V14.01,2014-02-05 02:12:00,
2014-02-04 21:17:00,24.3,16.6,30.33,ENE,75,0.0,3.0,72,0.00,,OVC110,0.00,VWS V14.01,2014-02-05 02:17:00,
2014-02-04 21:22:00,24.3,16.6,30.34,SE,141,0.0,3.0,72,0.00,,OVC110,0.00,VWS V14.01,2014-02-05 02:22:00,
2014-02-04 21:27:00,24.4,16.7,30.34,South,188,2.0,3.0,72,0.00,,OVC110,0.00,VWS V14.01,2014-02-05 02:27:00,
2014-02-04 21:30:00,24.2,16.2,30.22,ESE,118,5.0,7.0,71,0.00,,OVC,0.00,VWS V14.01,2014-02-05 02:30:00,
2014-02-04 21:32:00,24.4,16.4,30.34,South,172,1.0,3.0,71,0.00,,OVC110,0.00,VWS V14.01,2014-02-05 02:32:00,
2014-02-04 21:38:00,24.4,16.0,30.33,SSE,158,1.0,3.0,70,0.00,,OVC110,0.00,VWS V14.01,2014-02-05 02:38:00,
2014-02-04 21:43:00,24.4,16.0,30.32,South,188,1.0,3.0,70,0.00,,OVC110,0.00,VWS V14.01,2014-02-05 02:43:00,
2014-02-04 21:48:00,24.4,16.0,30.32,SW,224,2.0,4.0,70,0.00,,OVC075,0.00,VWS V14.01,2014-02-05 02:48:00,
2014-02-04 21:53:00,24.4,15.7,30.31,WSW,245,3.0,4.0,69,0.00,,OVC075,0.00,VWS V14.01,2014-02-05 02:53:00,
2014-02-04 21:58:00,24.4,15.4,30.30,South,187,2.0,4.0,68,0.00,,OVC075,0.00,VWS V14.01,2014-02-05 02:58:00,
2014-02-04 22:00:00,24.4,17.0,30.26,SW,217,2.0,7.0,73,0.00,,OVC,0.00,VWS V14.01,2014-02-05 03:00:00,
2014-02-04 22:03:00,24.4,15.7,30.29,SSW,195,0.0,4.0,69,0.00,,OVC075,0.00,VWS V14.01,2014-02-05 03:03:00,
2014-02-04 22:08:00,24.3,15.6,30.27,ESE,116,2.0,3.0,69,0.00,,OVC075,0.00,VWS V14.01,2014-02-05 03:08:00,
2014-02-04 22:13:00,24.3,15.6,30.26,SE,139,2.0,5.0,69,0.00,,OVC075,0.00,VWS V14.01,2014-02-05 03:13:00,
2014-02-04 22:18:00,24.3,16.3,30.25,SE,142,3.0,6.0,71,0.00,,OVC075,0.00,VWS V14.01,2014-02-05 03:18:00,
2014-02-04 22:24:00,24.3,16.6,30.24,SE,134,1.0,6.0,72,0.00,,OVC075,0.00,VWS V14.01,2014-02-05 03:24:00,
2014-02-04 22:29:00,24.2,16.5,30.23,ESE,118,1.0,6.0,72,0.00,,OVC075,0.00,VWS V14.01,2014-02-05 03:29:00,
2014-02-04 22:30:00,23.4,19.0,30.28,WSW,238,1.0,4.0,83,0.00,,OVC,0.00,VWS V14.01,2014-02-05 03:30:00,
2014-02-04 22:34:00,24.2,16.2,30.22,SE,127,3.0,5.0,71,0.00,,OVC075,0.00,VWS V14.01,2014-02-05 03:34:00,
2014-02-04 22:39:00,24.2,16.5,30.21,ESE,121,6.0,7.0,72,0.00,,OVC075,0.00,VWS V14.01,2014-02-05 03:39:00,
2014-02-04 22:44:00,24.2,16.8,30.21,South,188,1.0,7.0,73,0.00,,OVC075,0.00,VWS V14.01,2014-02-05 03:44:00,
2014-02-04 22:49:00,24.3,16.9,30.22,SE,134,1.0,7.0,73,0.00,,,0.00,VWS V14.01,2014-02-05 03:49:00,
2014-02-04 22:54:00,24.3,16.9,30.24,SSW,207,2.0,7.0,73,0.00,,,0.00,VWS V14.01,2014-02-05 03:54:00,
2014-02-04 22:59:00,24.4,17.0,30.25,SW,225,1.0,7.0,73,0.00,,,0.00,VWS V14.01,2014-02-05 03:59:00,
2014-02-04 23:00:00,22.8,19.5,30.25,ESE,114,0.0,2.0,87,0.00,,OVC,0.00,VWS V14.01,2014-02-05 04:00:00,
2014-02-04 23:04:00,24.4,17.0,30.26,SW,215,3.0,3.0,73,0.00,,,0.00,VWS V14.01,2014-02-05 04:04:00,
2014-02-04 23:10:00,24.4,17.6,30.25,SSW,205,2.0,4.0,75,0.00,,,0.00,VWS V14.01,2014-02-05 04:10:00,
2014-02-04 23:15:00,24.1,18.0,30.26,SSW,207,0.0,4.0,77,0.00,,,0.00,VWS V14.01,2014-02-05 04:15:00,
2014-02-04 23:20:00,23.8,18.5,30.26,WSW,242,0.0,4.0,80,0.00,,,0.00,VWS V14.01,2014-02-05 04:20:00,
2014-02-04 23:25:00,23.6,18.6,30.27,SW,231,1.0,4.0,81,0.00,,,0.00,VWS V14.01,2014-02-05 04:25:00,
2014-02-04 23:30:00,23.5,19.1,30.28,SW,225,1.0,4.0,83,0.00,,,0.00,VWS V14.01,2014-02-05 04:30:00,
2014-02-04 23:35:00,23.4,19.3,30.28,SW,233,2.0,2.0,84,0.00,,,0.00,VWS V14.01,2014-02-05 04:35:00,
2014-02-04 23:40:00,23.2,19.1,30.28,SSW,203,0.0,2.0,84,0.00,,,0.00,VWS V14.01,2014-02-05 04:40:00,
2014-02-04 23:45:00,23.2,19.4,30.27,SW,216,0.0,2.0,85,0.00,,,0.00,VWS V14.01,2014-02-05 04:45:00,
2014-02-04 23:50:00,23.1,19.5,30.27,SW,221,0.0,2.0,86,0.00,,,0.00,VWS V14.01,2014-02-05 04:50:00,
2014-02-04 23:55:00,23.0,19.7,30.26,ESE,113,0.0,2.0,87,0.00,,,0.00,VWS V14.01,2014-02-05 04:55:00,